CW4658 Weather Reports


Display with metric or nautical units.
time (UTC)temp
F
wind
direction
speed
MPH
gust
MPH
rain 1hr
in
rain 24hr
in
rain mn
in
humidity
%
barometer
mb
20260510070804 65 228 1.0 3.0 0.07 0.07 0.07 87 1011.8
20260510070404 65 231 1.0 3.0 0.07 0.07 0.07 89 1011.7
20260510070006 65 233 1.0 3.0 0.07 0.07 0.07 90 1011.1
20260510065605 65 233 0.0 3.0 0.07 0.07 0.07 90 1010.9
20260510065206 65 233 0.0 1.0 0.07 0.07 0.07 90 1010.6
20260510064805 65 233 0.0 2.0 0.07 0.07 0.07 90 1010.5
20260510064405 66 233 0.0 2.0 0.07 0.07 0.07 89 1010.4
20260510064006 66 233 0.0 2.0 0.07 0.07 0.07 88 1010.5
20260510063605 66 233 0.0 2.0 0.07 0.07 0.07 88 1010.2
20260510062805 66 233 0.0 2.0 0.07 0.07 0.07 85 1010.0
20260510062404 67 0 0.0 0.0 0.07 0.07 0.07 84 1010.2
20260510062005 68 0 0.0 0.0 0.07 0.07 0.07 82 1010.3
20260510061605 68 232 0.0 1.0 0.06 0.06 0.06 81 1010.4
20260510060804 68 232 0.0 1.0 0.00 0.00 0.00 76 1010.7
20260510060405 68 232 0.0 1.0 0.00 0.00 0.00 76 1010.8
20260510060006 68 233 0.0 2.0 0.00 0.00 0.00 75 1011.0
20260510055605 68 233 0.0 2.0 0.00 0.00 0.00 79 1011.0
20260510055205 68 0 0.0 0.0 0.00 0.00 0.00 78 1010.9
20260510054805 67 0 0.0 0.0 0.00 0.00 0.00 78 1010.9
20260510054405 67 0 0.0 0.0 0.00 0.00 0.00 77 1010.8
20260510054005 67 0 0.0 0.0 0.00 0.00 0.00 78 1010.8
20260510053605 67 0 0.0 0.0 0.00 0.00 0.00 77 1010.7
20260510053204 66 0 0.0 0.0 0.00 0.00 0.00 76 1010.6
20260510052805 66 0 0.0 0.0 0.00 0.00 0.00 76 1010.4
20260510052006 66 0 0.0 0.0 0.00 0.00 0.00 77 1010.1
20260510051605 66 0 0.0 0.0 0.00 0.00 0.00 79 1010.0
20260510051205 66 0 0.0 0.0 0.00 0.00 0.00 76 1009.9
20260510050011 66 0 0.0 0.0 0.00 0.00 0.00 80 1009.6
20260510045605 66 0 0.0 0.0 0.00 0.00 0.00 77 1009.6
20260510045205 66 0 0.0 0.0 0.00 0.00 0.00 79 1009.6
20260510044805 66 0 0.0 0.0 0.00 0.00 0.00 78 1009.6
20260510044006 66 0 0.0 0.0 0.00 0.00 0.00 76 1009.7
20260510043205 66 232 0.0 1.0 0.00 0.00 0.00 78 1009.7
20260510042805 66 232 0.0 1.0 0.00 0.00 0.00 77 1009.5
20260510042405 66 0 0.0 0.0 0.00 0.00 0.00 79 1009.6
20260510042005 66 0 0.0 0.0 0.00 0.00 0.00 79 1009.6
20260510041605 66 0 0.0 0.0 0.00 0.00 0.00 76 1009.0
20260510040805 66 0 0.0 0.0 0.00 0.00 0.00 78 1009.2
20260510040405 66 0 0.0 0.0 0.00 0.00 0.00 77 1009.3
20260510040006 66 0 0.0 0.0 0.00 0.00 0.00 77 1009.2
20260510035205 67 0 0.0 0.0 0.00 0.00 0.00 77 1009.2
20260510034805 67 0 0.0 0.0 0.00 0.00 0.00 79 1009.1
20260510034006 67 0 0.0 0.0 0.00 0.00 0.00 79 1009.0
20260510033605 67 232 0.0 1.0 0.00 0.00 0.00 80 1009.0
20260510033205 67 232 0.0 1.0 0.00 0.00 0.00 80 1009.1
20260510032805 67 0 0.0 0.0 0.00 0.00 0.00 80 1009.3
20260510032405 67 0 0.0 0.0 0.00 0.00 0.00 83 1009.3
20260510031605 67 0 0.0 0.0 0.00 0.00 0.00 82 1009.3
20260510030805 67 0 0.0 0.0 0.00 0.00 0.00 83 1008.9
20260510030006 67 0 0.0 0.0 0.00 0.00 0.00 83 1008.7
20260510025205 67 0 0.0 0.0 0.00 0.01 0.00 84 1008.4
20260510024805 67 0 0.0 0.0 0.00 0.01 0.00 84 1008.2
20260510024405 67 0 0.0 0.0 0.00 0.01 0.00 82 1008.1
20260510024006 67 0 0.0 0.0 0.00 0.01 0.00 80 1008.0
20260510023605 67 0 0.0 0.0 0.00 0.01 0.00 79 1007.8
20260510023205 67 0 0.0 0.0 0.00 0.01 0.00 79 1007.6
20260510022405 67 0 0.0 0.0 0.00 0.01 0.00 77 1007.4
20260510022006 68 0 0.0 0.0 0.00 0.01 0.00 77 1007.4
20260510021605 68 0 0.0 0.0 0.00 0.01 0.00 79 1007.4
20260510020805 68 0 0.0 0.0 0.00 0.03 0.00 75 1007.2
20260510020405 69 0 0.0 0.0 0.00 0.03 0.00 74 1007.2
20260510020006 69 0 0.0 0.0 0.00 0.03 0.00 74 1007.1
20260510015605 69 0 0.0 0.0 0.00 0.03 0.00 74 1007.1
20260510015205 70 0 0.0 0.0 0.00 0.03 0.00 76 1007.0
20260510014805 70 0 0.0 0.0 0.00 0.03 0.00 76 1007.0
20260510014405 70 0 0.0 0.0 0.00 0.03 0.00 76 1006.9
20260510014006 70 0 0.0 0.0 0.00 0.03 0.00 74 1006.9
20260510013605 71 0 0.0 0.0 0.00 0.03 0.00 70 1006.9
20260510013205 71 0 0.0 0.0 0.00 0.03 0.00 70 1006.8
20260510012806 71 0 0.0 0.0 0.00 0.04 0.00 72 1006.8
20260510012406 72 0 0.0 0.0 0.00 0.05 0.00 70 1006.7
20260510012006 72 0 0.0 0.0 0.00 0.05 0.00 70 1006.8
20260510011605 72 0 0.0 0.0 0.00 0.05 0.00 68 1006.7
20260510011205 73 0 0.0 0.0 0.00 0.05 0.00 68 1006.7
20260510010806 73 0 0.0 0.0 0.00 0.05 0.00 65 1006.7
20260510010405 74 0 0.0 0.0 0.00 0.06 0.00 63 1006.6
20260510010006 74 0 0.0 0.0 0.00 0.07 0.00 65 1006.5
20260510005606 74 232 0.0 1.0 0.00 0.08 0.00 62 1006.4
20260510005207 74 232 0.0 1.0 0.00 0.13 0.00 61 1006.3
20260510004805 75 232 0.0 1.0 0.00 0.25 0.00 63 1006.3
20260510004406 76 0 0.0 0.0 0.00 0.27 0.00 62 1006.3
20260510004007 76 0 0.0 0.0 0.00 0.35 0.00 62 1006.2
20260510003606 76 242 0.0 1.0 0.00 0.60 0.00 57 1006.3
20260510003205 76 242 0.0 1.0 0.00 0.64 0.00 59 1006.1
20260510002405 76 0 0.0 0.0 0.00 0.64 0.00 58 1006.0
20260510002007 76 0 0.0 0.0 0.00 0.64 0.00 57 1006.0
20260510001605 76 205 0.0 1.0 0.00 0.64 0.00 57 1006.1
20260510000805 77 205 0.0 1.0 0.00 0.64 0.00 58 1006.1
20260510000406 77 205 0.0 1.0 0.00 0.64 0.00 58 1006.1
20260509235606 78 205 0.0 1.0 0.00 0.64 0.00 57 1006.2
20260509235205 79 206 0.0 2.0 0.00 0.64 0.00 56 1006.2
20260509234406 79 205 0.0 2.0 0.00 0.64 0.00 55 1006.3
20260509234007 80 205 0.0 2.0 0.00 0.64 0.00 53 1006.3
20260509233605 80 205 0.0 1.0 0.00 0.64 0.00 54 1006.3
20260509233205 81 205 0.0 1.0 0.00 0.64 0.00 50 1006.3
20260509232806 81 205 0.0 1.0 0.00 0.64 0.00 53 1006.3
20260509232405 82 205 0.0 1.0 0.00 0.64 0.00 50 1006.5
20260509232006 82 205 0.0 1.0 0.00 0.64 0.00 48 1006.4
20260509231606 83 201 0.0 2.0 0.00 0.64 0.00 48 1006.5
20260509230805 83 182 0.0 2.0 0.00 0.64 0.00 46 1006.6
20260509230406 84 166 0.0 1.0 0.00 0.64 0.00 48 1006.6
20260509230006 84 166 0.0 2.0 0.00 0.64 0.00 41 1006.6
20260509224805 84 167 1.0 2.0 0.00 0.64 0.00 46 1006.7
20260509224006 84 164 0.0 4.0 0.00 0.64 0.00 41 1006.8
20260509223205 84 151 1.0 4.0 0.00 0.64 0.00 42 1006.7
20260509222405 85 188 1.0 5.0 0.00 0.64 0.00 36 1006.9
20260509222006 85 50 1.0 7.0 0.00 0.64 0.00 38 1006.9
20260509221606 85 39 1.0 7.0 0.00 0.64 0.00 42 1006.8
20260509221205 86 191 1.0 6.0 0.00 0.64 0.00 37 1006.8
20260509220805 86 212 1.0 6.0 0.00 0.64 0.00 41 1006.8
20260509220406 86 35 1.0 4.0 0.00 0.64 0.00 39 1006.9
20260509220006 86 91 1.0 4.0 0.00 0.64 0.00 40 1006.9
20260509215605 86 65 1.0 6.0 0.00 0.64 0.00 38 1007.0
20260509215206 86 48 1.0 6.0 0.00 0.64 0.00 32 1006.9
20260509214805 86 359 1.0 6.0 0.00 0.64 0.00 30 1006.9
20260509214406 86 288 1.0 2.0 0.00 0.64 0.00 33 1006.9
20260509213206 86 324 0.0 4.0 0.00 0.64 0.00 38 1007.1
20260509212805 86 335 1.0 4.0 0.00 0.64 0.00 40 1007.1
20260509212406 86 329 1.0 4.0 0.00 0.64 0.00 45 1007.1
20260509212007 86 290 1.0 4.0 0.00 0.64 0.00 47 1007.1
20260509211605 86 233 1.0 4.0 0.00 0.64 0.00 44 1007.2
20260509211205 85 214 1.0 4.0 0.00 0.64 0.00 39 1007.2
20260509210805 85 211 1.0 4.0 0.00 0.64 0.00 46 1007.3
20260509210406 85 208 2.0 4.0 0.00 0.64 0.00 43 1007.3
20260509210007 85 204 1.0 4.0 0.00 0.64 0.00 39 1007.4
20260509205605 85 204 1.0 4.0 0.00 0.64 0.00 42 1007.4
20260509205206 85 205 2.0 4.0 0.00 0.64 0.00 44 1007.5
20260509204806 85 205 2.0 5.0 0.00 0.64 0.00 43 1007.4
20260509204405 85 257 2.0 7.0 0.00 0.64 0.00 42 1007.5
20260509203606 85 235 1.0 4.0 0.00 0.64 0.00 41 1007.5
20260509203206 85 211 2.0 4.0 0.00 0.64 0.00 48 1007.6
20260509202805 85 212 1.0 4.0 0.00 0.64 0.00 46 1007.6
20260509202406 85 207 1.0 4.0 0.00 0.64 0.00 40 1007.7
20260509202006 85 201 1.0 4.0 0.00 0.64 0.00 45 1007.8
20260509201206 85 226 1.0 6.0 0.00 0.64 0.00 39 1007.7
20260509200806 85 294 1.0 6.0 0.00 0.64 0.00 37 1007.8
20260509200406 85 23 1.0 4.0 0.00 0.64 0.00 39 1008.0
20260509200007 85 38 1.0 4.0 0.00 0.64 0.00 38 1008.0
20260509195605 85 16 1.0 4.0 0.00 0.64 0.00 40 1008.1
20260509194805 85 333 0.0 4.0 0.00 0.64 0.00 40 1008.1
20260509194406 85 331 0.0 4.0 0.00 0.64 0.00 44 1008.2
20260509194007 84 333 1.0 4.0 0.00 0.64 0.00 42 1008.2
20260509193606 84 317 1.0 4.0 0.00 0.64 0.00 41 1008.4
20260509193206 84 244 1.0 3.0 0.00 0.64 0.00 43 1008.4
20260509192406 84 219 1.0 3.0 0.00 0.64 0.00 46 1008.5
20260509192007 84 217 1.0 3.0 0.00 0.64 0.00 49 1008.5
20260509191607 84 225 1.0 3.0 0.00 0.64 0.00 46 1008.5
20260509191206 84 236 1.0 4.0 0.00 0.64 0.00 54 1008.5
20260509190805 83 307 1.0 4.0 0.00 0.64 0.00 50 1008.5
20260509190007 83 239 1.0 4.0 0.00 0.64 0.00 45 1008.3
20260509185606 83 204 1.0 5.0 0.00 0.64 0.00 61 1008.4
20260509184805 82 184 1.0 4.0 0.00 0.64 0.00 53 1008.4
20260509184405 82 175 1.0 4.0 0.00 0.64 0.00 51 1008.4
20260509184006 82 160 1.0 4.0 0.00 0.64 0.00 53 1008.5
20260509183606 82 155 1.0 4.0 0.00 0.64 0.00 58 1008.6
20260509183206 82 167 1.0 4.0 0.00 0.64 0.00 57 1008.6
20260509182806 81 173 1.0 4.0 0.00 0.64 0.00 56 1008.6
20260509182406 81 205 1.0 3.0 0.00 0.64 0.00 60 1008.6
20260509182006 81 205 1.0 3.0 0.00 0.64 0.00 53 1008.6
20260509180806 80 62 1.0 4.0 0.00 0.64 0.00 50 1008.6
20260509180406 79 28 1.0 5.0 0.00 0.64 0.00 61 1008.7
20260509180007 79 24 2.0 5.0 0.00 0.64 0.00 61 1008.7
20260509175606 79 21 2.0 5.0 0.00 0.64 0.00 61 1008.8
20260509175206 78 13 1.0 5.0 0.00 0.64 0.00 65 1008.8
20260509174806 78 38 0.0 2.0 0.00 0.64 0.00 72 1008.9
20260509174406 78 38 1.0 3.0 0.00 0.64 0.00 68 1008.9
20260509173606 78 11 2.0 4.0 0.00 0.64 0.00 66 1009.1
20260509173206 78 313 1.0 4.0 0.00 0.64 0.00 68 1009.2
20260509172806 77 271 1.0 5.0 0.00 0.64 0.00 69 1009.3
20260509172406 77 332 1.0 5.0 0.00 0.64 0.00 69 1009.4
20260509172007 77 2 2.0 5.0 0.00 0.64 0.00 73 1009.4
20260509171606 77 27 1.0 4.0 0.00 0.64 0.00 73 1009.5
20260509171206 77 42 2.0 4.0 0.00 0.64 0.00 72 1009.4
20260509170806 76 43 2.0 4.0 0.00 0.64 0.00 76 1009.5
20260509170007 76 346 1.0 5.0 0.00 0.64 0.00 76 1009.4
20260509165607 76 328 1.0 5.0 0.00 0.64 0.00 78 1009.5
20260509165206 76 307 0.0 5.0 0.00 0.64 0.00 76 1009.5
20260509164806 75 355 0.0 4.0 0.00 0.64 0.00 79 1009.5
20260509164406 75 355 1.0 4.0 0.00 0.64 0.00 80 1009.5
20260509164007 74 13 1.0 4.0 0.00 0.64 0.00 81 1009.5
20260509163607 74 30 1.0 4.0 0.00 0.64 0.00 81 1009.5
20260509163206 73 49 2.0 4.0 0.00 0.64 0.00 81 1009.4
20260509162806 73 60 1.0 4.0 0.00 0.64 0.00 82 1009.4
20260509162006 72 0 0.0 0.0 0.00 0.64 0.00 84 1009.4
20260509161606 72 130 0.0 2.0 0.00 0.64 0.00 83 1009.4
20260509161206 71 130 0.0 2.0 0.00 0.64 0.00 86 1009.5
20260509160805 71 0 0.0 0.0 0.00 0.64 0.00 89 1009.5
20260509160406 71 0 0.0 0.0 0.00 0.64 0.00 87 1009.5
20260509160009 71 0 0.0 0.0 0.00 0.64 0.00 87 1009.5
20260509155606 70 0 0.0 0.0 0.00 0.64 0.00 83 1009.6
20260509155206 70 193 0.0 2.0 0.00 0.64 0.00 85 1009.5
20260509154806 70 192 0.0 2.0 0.00 0.64 0.00 85 1009.5
20260509154406 70 192 0.0 2.0 0.00 0.64 0.00 86 1009.5
20260509154008 69 192 0.0 2.0 0.00 0.64 0.00 87 1009.4
20260509153606 69 192 0.0 2.0 0.00 0.64 0.00 87 1009.5
20260509153206 69 192 0.0 2.0 0.00 0.64 0.00 86 1009.5
20260509152806 69 193 0.0 1.0 0.00 0.64 0.00 89 1009.5
20260509152007 69 0 0.0 0.0 0.00 0.64 0.00 87 1009.7
20260509151607 68 0 0.0 0.0 0.00 0.64 0.00 89 1009.7
20260509151206 68 0 0.0 0.0 0.00 0.64 0.00 88 1009.6
20260509150806 68 193 0.0 1.0 0.00 0.64 0.00 87 1009.6
20260509150008 67 193 0.0 2.0 0.00 0.64 0.00 88 1009.7
20260509145607 67 192 0.0 3.0 0.00 0.64 0.00 88 1009.7
20260509145205 66 192 0.0 3.0 0.00 0.64 0.00 90 1009.7
20260509144805 66 0 0.0 0.0 0.00 0.64 0.00 92 1009.7
20260509144405 65 0 0.0 0.0 0.00 0.64 0.00 93 1009.7
20260509144006 65 0 0.0 0.0 0.00 0.64 0.00 93 1009.6
20260509143604 65 0 0.0 0.0 0.00 0.64 0.00 93 1009.6
20260509143205 65 0 0.0 0.0 0.00 0.64 0.00 93 1009.6
20260509142806 64 0 0.0 0.0 0.00 0.64 0.00 93 1009.6
20260509142404 64 0 0.0 0.0 0.00 0.64 0.00 93 1009.6
20260509142006 64 191 0.0 1.0 0.00 0.64 0.00 92 1009.6
20260509141605 64 191 0.0 1.0 0.00 0.64 0.00 92 1009.5
20260509141205 64 191 0.0 1.0 0.00 0.64 0.00 91 1009.5
20260509140405 64 0 0.0 0.0 0.00 0.64 0.00 91 1009.5
20260509140006 64 0 0.0 0.0 0.00 0.64 0.00 90 1009.4
20260509135605 64 0 0.0 0.0 0.00 0.64 0.00 91 1009.3
20260509135205 64 0 0.0 0.0 0.00 0.64 0.00 92 1009.3
20260509134805 64 0 0.0 0.0 0.00 0.64 0.00 93 1009.3
20260509134404 63 0 0.0 0.0 0.00 0.64 0.00 95 1009.2
20260509134005 63 0 0.0 0.0 0.00 0.64 0.00 96 1009.2
20260509133605 62 0 0.0 0.0 0.00 0.64 0.00 97 1009.1
20260509132405 61 0 0.0 0.0 0.00 0.64 0.00 97 1009.0
20260509132006 61 0 0.0 0.0 0.00 0.64 0.00 97 1008.8
20260509130805 59 0 0.0 0.0 0.00 0.64 0.00 97 1008.7
20260509130404 59 0 0.0 0.0 0.00 0.64 0.00 97 1008.7
20260509130006 58 0 0.0 0.0 0.00 0.64 0.00 97 1008.8
20260509125605 58 0 0.0 0.0 0.00 0.64 0.00 97 1008.7
20260509125205 58 0 0.0 0.0 0.00 0.64 0.00 96 1008.7
20260509124805 58 0 0.0 0.0 0.00 0.64 0.00 96 1008.8
20260509124405 58 0 0.0 0.0 0.00 0.64 0.00 96 1008.8
20260509124006 57 0 0.0 0.0 0.00 0.64 0.00 96 1008.7
20260509123606 57 0 0.0 0.0 0.00 0.64 0.00 96 1008.8
20260509123205 57 0 0.0 0.0 0.00 0.64 0.00 96 1008.7
20260509122006 57 0 0.0 0.0 0.00 0.64 0.00 96 1008.5
20260509121606 56 0 0.0 0.0 0.00 0.64 0.00 96 1008.6
20260509120805 56 0 0.0 0.0 0.00 0.64 0.00 96 1008.4
20260509115605 56 0 0.0 0.0 0.00 0.64 0.00 96 1008.4
20260509115205 56 0 0.0 0.0 0.00 0.64 0.00 95 1008.3
20260509114806 56 0 0.0 0.0 0.00 0.64 0.00 95 1008.3
20260509114405 56 0 0.0 0.0 0.00 0.64 0.00 95 1008.3
20260509114006 56 0 0.0 0.0 0.00 0.64 0.00 95 1008.2
20260509113605 56 0 0.0 0.0 0.00 0.64 0.00 95 1008.2
20260509113205 56 0 0.0 0.0 0.00 0.64 0.00 95 1008.1
20260509112805 56 0 0.0 0.0 0.00 0.64 0.00 95 1008.1
20260509112006 56 0 0.0 0.0 0.00 0.64 0.00 95 1007.9
20260509111605 56 0 0.0 0.0 0.00 0.64 0.00 95 1007.7
20260509111205 57 0 0.0 0.0 0.00 0.64 0.00 95 1007.6
20260509110805 57 0 0.0 0.0 0.00 0.64 0.00 95 1007.5
20260509110406 57 0 0.0 0.0 0.00 0.64 0.00 95 1007.6
20260509110007 57 0 0.0 0.0 0.00 0.64 0.00 95 1007.6
20260509105605 57 0 0.0 0.0 0.00 0.64 0.00 95 1007.6
20260509105206 57 0 0.0 0.0 0.00 0.64 0.00 95 1007.6
20260509104806 57 0 0.0 0.0 0.00 0.64 0.00 95 1007.6
20260509104405 57 0 0.0 0.0 0.00 0.64 0.00 95 1007.6
20260509104006 57 0 0.0 0.0 0.00 0.64 0.00 95 1007.6
20260509103205 57 0 0.0 0.0 0.00 0.64 0.00 95 1007.6
20260509102805 57 0 0.0 0.0 0.00 0.64 0.00 95 1007.7
20260509102405 57 0 0.0 0.0 0.00 0.64 0.00 95 1007.7
20260509102006 57 0 0.0 0.0 0.00 0.64 0.00 95 1007.7
20260509101605 57 0 0.0 0.0 0.00 0.64 0.00 95 1007.8
20260509101205 57 0 0.0 0.0 0.00 0.64 0.00 95 1007.8
20260509100806 57 0 0.0 0.0 0.00 0.64 0.00 95 1007.8
20260509100406 57 0 0.0 0.0 0.00 0.64 0.00 95 1007.8
20260509100006 57 0 0.0 0.0 0.00 0.64 0.00 95 1007.8
20260509095605 57 0 0.0 0.0 0.00 0.64 0.00 95 1007.8
20260509095206 58 0 0.0 0.0 0.00 0.64 0.00 95 1007.8
20260509094806 58 0 0.0 0.0 0.00 0.64 0.00 95 1007.8
20260509094406 58 0 0.0 0.0 0.00 0.64 0.00 95 1007.9
20260509094007 58 0 0.0 0.0 0.00 0.64 0.00 95 1007.9
20260509093605 58 0 0.0 0.0 0.00 0.64 0.00 95 1007.8
20260509093206 58 0 0.0 0.0 0.00 0.64 0.00 95 1007.8
20260509092805 58 0 0.0 0.0 0.00 0.64 0.00 95 1007.8
20260509092406 58 0 0.0 0.0 0.00 0.64 0.00 95 1007.8
20260509091605 58 0 0.0 0.0 0.00 0.64 0.00 95 1007.9
20260509090805 58 0 0.0 0.0 0.00 0.64 0.00 95 1007.8
20260509090007 58 0 0.0 0.0 0.00 0.64 0.00 95 1007.7
20260509085605 58 0 0.0 0.0 0.00 0.64 0.00 95 1007.7
20260509085206 58 0 0.0 0.0 0.00 0.64 0.00 95 1007.7
20260509084806 58 0 0.0 0.0 0.00 0.64 0.00 95 1007.9
20260509084405 59 0 0.0 0.0 0.00 0.64 0.00 95 1007.9
20260509084007 59 0 0.0 0.0 0.00 0.64 0.00 95 1007.9
20260509083205 59 0 0.0 0.0 0.00 0.64 0.00 95 1007.9
20260509082806 59 0 0.0 0.0 0.00 0.64 0.00 95 1007.9
20260509082405 59 0 0.0 0.0 0.00 0.64 0.00 95 1008.0
20260509082006 59 0 0.0 0.0 0.00 0.64 0.00 95 1007.9
20260509081206 59 0 0.0 0.0 0.00 0.64 0.00 95 1008.1
20260509080806 59 0 0.0 0.0 0.00 0.64 0.00 95 1008.2
20260509080006 59 0 0.0 0.0 0.00 0.64 0.00 95 1008.2
20260509074805 59 0 0.0 0.0 0.00 0.64 0.00 95 1008.2
20260509074406 59 0 0.0 0.0 0.00 0.64 0.00 95 1008.2
20260509072806 59 0 0.0 0.0 0.00 0.64 0.00 95 1008.4
20260509072406 59 0 0.0 0.0 0.00 0.64 0.00 95 1008.5
20260509072006 59 0 0.0 0.0 0.00 0.64 0.00 95 1008.5
20260509071605 59 0 0.0 0.0 0.00 0.64 0.00 95 1008.5